Ankeny, IA

11:31 AM CDT on October 18, 2017 (GMT -0500)
Ankeny Regional

Weather History for KIKV - March, 2014

Change the Weather History Date:

Thursday, March 13, 2014

  Actual Average (KDSM) Record (KDSM)
Temperature  
Mean Temperature 44 °F -  
Max Temperature 62 °F 43 °F 77 °F (2007)
Min Temperature 26 °F 27 °F 2 °F (1975)
Degree Days  
Heating Degree Days 21    
Moisture  
Dew Point 29 °F    
Average Humidity 59    
Maximum Humidity 93    
Minimum Humidity 32    
Precipitation  
Precipitation 0.00 in - - ()
Sea Level Pressure  
Sea Level Pressure 29.91 in    
Wind  
Wind Speed 7 mph (SSW)    
Max Wind Speed 17 mph    
Max Gust Speed 25 mph    
Visibility 10 miles    
Events      
Averages and records for this station are not official NWS values.
T = Trace of Precipitation, MM = Missing Value Source: NWS Daily Summary

Daily Weather History Graph

Daily Weather History Graph

Search for Another Location

Airport or City:

Trip Planner

Search our weather history database for the weather conditions in past years. The results will help you decide how hot, cold, wet, or windy it might be!

Date:

Astronomy

Mar. 13, 2014 Rise Set
Actual Time 7:29 AM CDT 7:18 PM CDT
Civil Twilight 7:01 AM CDT 7:46 PM CDT
Nautical Twilight 6:29 AM CDT 8:18 PM CDT
Astronomical Twilight 5:56 AM CDT 8:51 PM CDT
Moon 4:43 PM CDT (3/13) 5:38 AM CDT (3/13)
Length of Visible Light 12h 44m
Length of Day
11h 49m
Waxing Gibbous, 91% of the Moon is Illuminated
Mar 13
Waxing Gibbous
Mar 16
Full
Mar 23
Last Quarter
Mar 30
New
Apr 7
First Quarter

Hourly Weather History & Observations

Time (CDT) Temp. Windchill Dew Point Humidity Pressure Visibility Wind Dir Wind Speed Gust Speed Precip Events Conditions
12:15 AM 26.6 °F - 23.0 °F 86% 30.10 in 10.0 mi Calm Calm - N/A   Mostly Cloudy
12:35 AM 26.6 °F - 24.8 °F 93% 30.10 in 10.0 mi Calm Calm - N/A   Overcast
12:55 AM 28.4 °F - 24.8 °F 86% 30.10 in 10.0 mi Calm Calm - N/A   Overcast
1:15 AM 28.4 °F 23.3 °F 24.8 °F 86% 30.10 in 10.0 mi SE 4.6 mph - N/A   Overcast
1:35 AM 28.4 °F 24.6 °F 24.8 °F 86% 30.10 in 10.0 mi SSE 3.5 mph - N/A   Overcast
1:55 AM 28.4 °F 21.2 °F 24.8 °F 86% 30.08 in 10.0 mi South 6.9 mph - N/A   Overcast
2:15 AM 30.2 °F 24.3 °F 24.8 °F 80% 30.09 in 10.0 mi SSE 5.8 mph - N/A   Overcast
2:35 AM 28.4 °F 23.3 °F 24.8 °F 86% 30.08 in 10.0 mi South 4.6 mph - N/A   Mostly Cloudy
2:55 AM 28.4 °F 21.2 °F 24.8 °F 86% 30.07 in 10.0 mi South 6.9 mph - N/A   Mostly Cloudy
3:15 AM 28.4 °F 22.2 °F 24.8 °F 86% 30.07 in 10.0 mi SSE 5.8 mph - N/A   Overcast
3:35 AM 30.2 °F 23.4 °F 24.8 °F 80% 30.06 in 10.0 mi South 6.9 mph - N/A   Overcast
3:55 AM 30.2 °F 23.4 °F 24.8 °F 80% 30.05 in 10.0 mi South 6.9 mph - N/A   Overcast
4:15 AM 30.2 °F 22.6 °F 24.8 °F 80% 30.04 in 10.0 mi South 8.1 mph - N/A   Overcast
4:35 AM 30.2 °F 21.9 °F 23.0 °F 75% 30.03 in 10.0 mi South 9.2 mph - N/A   Overcast
4:55 AM 30.2 °F 23.4 °F 24.8 °F 80% 30.03 in 10.0 mi South 6.9 mph - N/A   Overcast
5:15 AM 30.2 °F 22.6 °F 24.8 °F 80% 30.03 in 10.0 mi South 8.1 mph - N/A   Overcast
5:35 AM 28.4 °F 20.4 °F 23.0 °F 80% 30.03 in 10.0 mi South 8.1 mph - N/A   Scattered Clouds
5:55 AM 28.4 °F 22.2 °F 23.0 °F 80% 30.02 in 10.0 mi South 5.8 mph - N/A   Clear
6:15 AM 28.4 °F 20.4 °F 23.0 °F 80% 30.02 in 10.0 mi South 8.1 mph - N/A   Clear
6:35 AM 28.4 °F 20.4 °F 24.8 °F 86% 30.01 in 10.0 mi South 8.1 mph - N/A   Clear
6:55 AM 28.4 °F 20.4 °F 24.8 °F 86% 30.00 in 10.0 mi South 8.1 mph - N/A   Clear
7:15 AM 28.4 °F 19.7 °F 24.8 °F 86% 30.00 in 10.0 mi South 9.2 mph - N/A   Clear
7:35 AM 28.4 °F 19.7 °F 24.8 °F 86% 29.99 in 10.0 mi South 9.2 mph - N/A   Clear
7:55 AM 28.4 °F 20.4 °F 24.8 °F 86% 30.00 in 10.0 mi South 8.1 mph - N/A   Clear
8:15 AM 30.2 °F 21.9 °F 24.8 °F 80% 30.00 in 10.0 mi South 9.2 mph - N/A   Clear
8:35 AM 32.0 °F 24.8 °F 26.6 °F 80% 29.99 in 10.0 mi South 8.1 mph - N/A   Clear
8:55 AM 32.0 °F 24.2 °F 26.6 °F 80% 29.99 in 10.0 mi South 9.2 mph - N/A   Clear
9:15 AM 35.6 °F 28.0 °F 26.6 °F 70% 29.99 in 10.0 mi SSW 10.4 mph - N/A   Clear
9:35 AM 35.6 °F 28.6 °F 26.6 °F 70% 29.98 in 10.0 mi SSW 9.2 mph - N/A   Clear
9:55 AM 39.2 °F 33.6 °F 28.4 °F 65% 29.98 in 10.0 mi SSW 8.1 mph - N/A   Clear
10:15 AM 41.0 °F 34.7 °F 28.4 °F 61% 29.98 in 10.0 mi SW 10.4 mph - N/A   Clear
10:35 AM 42.8 °F 37.5 °F 28.4 °F 57% 29.97 in 10.0 mi SW 9.2 mph - N/A   Clear
10:55 AM 44.6 °F 39.2 °F 30.2 °F 57% 29.96 in 10.0 mi SW 10.4 mph - N/A   Clear
11:15 AM 46.4 °F 41.9 °F 30.2 °F 53% 29.96 in 10.0 mi WSW 9.2 mph - N/A   Clear
11:35 AM 48.2 °F - 32.0 °F 54% 29.95 in 10.0 mi WSW 8.1 mph 16.1 mph N/A   Clear
11:55 AM 51.8 °F - 32.0 °F 47% 29.94 in 10.0 mi WSW 11.5 mph - N/A   Clear
12:15 PM 53.6 °F - 32.0 °F 44% 29.93 in 10.0 mi WSW 11.5 mph - N/A   Clear
12:35 PM 55.4 °F - 33.8 °F 44% 29.92 in 10.0 mi WSW 11.5 mph - N/A   Clear
12:55 PM 57.2 °F - 33.8 °F 41% 29.91 in 10.0 mi WSW 12.7 mph - N/A   Clear
1:15 PM 59.0 °F - 35.6 °F 42% 29.91 in 10.0 mi WSW 11.5 mph 19.6 mph N/A   Clear
1:35 PM 59.0 °F - 35.6 °F 42% 29.89 in 10.0 mi WSW 15.0 mph 20.7 mph N/A   Clear
1:55 PM 59.0 °F - 35.6 °F 42% 29.88 in 10.0 mi WSW 15.0 mph 20.7 mph N/A   Clear
2:15 PM 60.8 °F - 35.6 °F 39% 29.87 in 10.0 mi West 13.8 mph 19.6 mph N/A   Clear
2:35 PM 60.8 °F - 35.6 °F 39% 29.86 in 10.0 mi SW 15.0 mph 20.7 mph N/A   Clear
2:55 PM 60.8 °F - 35.6 °F 39% 29.85 in 10.0 mi West 17.3 mph - N/A   Clear
3:15 PM 60.8 °F - 35.6 °F 39% 29.85 in 10.0 mi West 15.0 mph 23.0 mph N/A   Clear
3:35 PM 62.6 °F - 33.8 °F 34% 29.84 in 10.0 mi West 15.0 mph 24.2 mph N/A   Clear
3:55 PM 62.6 °F - 33.8 °F 34% 29.84 in 10.0 mi WSW 17.3 mph 25.3 mph N/A   Clear
4:15 PM 62.6 °F - 33.8 °F 34% 29.83 in 10.0 mi West 17.3 mph - N/A   Clear
4:35 PM 62.6 °F - 32.0 °F 32% 29.83 in 10.0 mi WSW 16.1 mph - N/A   Clear
4:55 PM 62.6 °F - 32.0 °F 32% 29.81 in 10.0 mi SW 12.7 mph 20.7 mph N/A   Clear
5:15 PM 62.6 °F - 32.0 °F 32% 29.80 in 10.0 mi WSW 15.0 mph 21.9 mph N/A   Clear
5:35 PM 62.6 °F - 32.0 °F 32% 29.80 in 10.0 mi SW 13.8 mph 20.7 mph N/A   Clear
5:55 PM 62.6 °F - 32.0 °F 32% 29.80 in 10.0 mi SW 13.8 mph 20.7 mph N/A   Clear
6:15 PM 60.8 °F - 32.0 °F 34% 29.79 in 10.0 mi SW 13.8 mph - N/A   Clear
6:35 PM 60.8 °F - 32.0 °F 34% 29.79 in 10.0 mi SW 15.0 mph - N/A   Clear
6:55 PM 59.0 °F - 32.0 °F 36% 29.78 in 10.0 mi South 8.1 mph - N/A   Clear
7:15 PM 59.0 °F - 32.0 °F 36% 29.78 in 10.0 mi SSW 11.5 mph 17.3 mph N/A   Clear
7:35 PM 55.4 °F - 32.0 °F 41% 29.77 in 10.0 mi South 8.1 mph - N/A   Clear
7:55 PM 53.6 °F - 30.2 °F 41% 29.77 in 10.0 mi South 8.1 mph - N/A   Clear
8:15 PM 51.8 °F - 32.0 °F 47% 29.77 in 10.0 mi South 9.2 mph - N/A   Clear
8:35 PM 51.8 °F - 32.0 °F 47% 29.76 in 10.0 mi South 9.2 mph - N/A   Clear
8:55 PM 51.8 °F - 30.2 °F 44% 29.76 in 10.0 mi South 9.2 mph - N/A   Clear
9:15 PM 50.0 °F - 30.2 °F 47% 29.75 in 10.0 mi South 9.2 mph - N/A   Clear
9:35 PM 48.2 °F - 32.0 °F 54% 29.74 in 10.0 mi South 10.4 mph - N/A   Clear
9:55 PM 48.2 °F - 30.2 °F 50% 29.74 in 10.0 mi South 10.4 mph - N/A   Clear
10:15 PM 48.2 °F - 32.0 °F 54% 29.73 in 10.0 mi South 10.4 mph - N/A   Clear
10:35 PM 50.0 °F - 30.2 °F 47% 29.73 in 10.0 mi South 10.4 mph - N/A   Clear
10:55 PM 50.0 °F - 30.2 °F 47% 29.72 in 10.0 mi South 9.2 mph - N/A   Clear
11:15 PM 48.2 °F - 30.2 °F 50% 29.71 in 10.0 mi South 6.9 mph - N/A   Clear
11:35 PM 48.2 °F - 30.2 °F 50% 29.70 in 10.0 mi South 9.2 mph - N/A   Clear
11:55 PM 46.4 °F 41.9 °F 30.2 °F 53% 29.69 in 10.0 mi South 9.2 mph - N/A   Clear